Погода в Полоцке

Погода в Полоцке : погода сейчас, прогноз погоды и архив. Всё, что Вы хотите узнать о погоде в Полоцке!

Хотите узнать прогноз погоды в Полоцке? Тогда Вам сюда: Погода в Полоцке

Поиск расширенной информации на нашем сайте:

Другие новости

Новости СМИ2

Главная страница сайта

Новости сайта

03.07.2017

Напоминаем, что на нашем специализированном сайте Метеоцентр.Азия вы можете получить высокодетализированные автоматические прогнозы погоды по пунктам России, СНГ и мира в авиационном формате (включающие направление и скорость ветра, видимость, явления погоды, количество и форму облачности, нижнюю и верхнюю границу облачности).


Погода в Полоцке - сегодня

Время (UTC), дата Ветер
(°,м/с) 
Видим.   Явления Облачность Т
(°С)
Тd
(°С)
f(%) Тe
(°С)
Pmin
(гПа)
dP
(гПа)
Po
(мм)
O2
(г/м3)
Тmin Tmax R s Состояние
почвы
00 18.09.17 040 (СВ) 5000 м  дымка{дождь, морось}  10/10 100 м 
[St]
+13.8 +13.6 99 +21  1005.6  -4  743  282      0.0     
03 18.09.17 060 (СВ) 8000 м  дымка{дождь}  10/10 100 м 
[St]
+14.7 +14.3 97 +23  1000.4  -5.2  739  279         
06 18.09.17 150 (ЮВ) 9000 м  дымка{дождь}  9/9 630 м 
[Sc]
+15.2 +14.5 96 +23  998.7  -1.7  737  278  +13.1       
12 18.09.17 190 (Ю) 6-12{15}  6000 м  слаб. ливневой дождь  10/10 600 м кучево-дожд. 
[Cb cap]
+12.2 +10.3 88 +13  998.2  0.3  737  282      0.0     
15 18.09.17 180 (Ю) 5-10{12}  5000 м  слаб. дождь{ливн. осадки}  10/10 330 м 
[Frnb|Ns]
+11.6 +10.6 94 +13  996.7  -1.6  736  282         
18 18.09.17 200 (Ю) 7000 м  слаб. дождь{ливн. осадки}  10/10 330 м 
[Frnb|Ns]
+11.9 +11 94 +14  996.4  -0.2  736  282    +17.4     
00 19.09.17 270 (З) 5-11{11}  10 км  в посл. час дождь  10/10 450 м 
[St]
+10.4 +9.2 92 +9  1001.6  4.3  739  285         
03 19.09.17 280 (З) 6-12{11}  10 км  {дождь}  9/9 630 м 
[Sc]
+9.6 +8 90 +8  1006.9  5.2  743  288         
06 19.09.17 250 (З) 4{12}  10 км  {дождь}  9/8 540 м средняя 
[Sc|Ac trans]
+10.2 +8 86 +9  1010.4  3.5  746  288  +9.3       
09 19.09.17 280 (З) 15000 м    8/8 750 м 
[Sc]
+12.6 +6.5 66 +12  1012.6  2.3  748  287           
12 19.09.17 250 (З) 15000 м    9/9 720 м 
[Sc]
+14.5 +8.1 65 +14  1014.7  2.1  749  285           
18 19.09.17 200 (Ю) 10 км  {ливн. осадки}  3/0 средняя 
[Ac trans]
+10.7 +8.9 89 +12  1017.6  1.8  751  290    +15.4  0.1     
00 20.09.17 200 (Ю) 9000 м  дымка{ливн. осадки}  3/0 верхняя 
[Ci fib]
+8.1 +7.4 95 +9  1019.8  753  293           
03 20.09.17 190 (Ю) 7000 м  дымка  9/0 средняя 
[Ac As]
+7.6 +7 96 +9  1020.3  0.4  753  294      0.1     
06 20.09.17 тихо ()   8000 м  дымка  9/0 средняя 
[Ac inh]
+9.3 +8.2 93 +9  1021  0.8  754  292  +7.1    0.1     
12 20.09.17 140 (ЮВ) 9000 м  слаб. дождь  10/0 средняя 
[As op]
+13.8 +8.6 71 +15  1021.7  0.1  754  288      0.0     
18 20.09.17 050 (СВ) 8000 м  в посл. час дождь  10/0 средняя 
[As trans]
+11.9 +10.5 91 +15  1021.3  0.1  754  289    +14.3  0.3     
21 20.09.17 060 (СВ) 10 км    9/0 средняя 
[Ac trans]
+11.6 +10.4 92 +14  1021.4  754  290           
00 21.09.17 050 (СВ) 10 км  {дождь}  4/0 средняя 
[Ac trans]
+10.6 +10 96 +13  1021.6  0.2  754  291      0.0     
06 21.09.17 070 (В) 10 км    10/4 600 м средняя, верхняя 
[Sc|Ac trans|Ci fib]
+11.8 +9.7 87 +13  1021  0.1  754  289  +10    0.0     
09 21.09.17 110 (В) 15000 м    9/5 600 м кучево-дожд., средняя 
[Cb cap|Ac und]
+13.5 +9.8 78 +15  1019  -2  752  287           
12 21.09.17 060 (СВ) 10 км  {ливн. осадки}  10/6 840 м кучево-дожд., средняя, верхняя 
[Cb cap|Ac trans|Ci ing]
+13.8 +11.5 86 +16  1017.4  -1.5  751  286         
18 21.09.17 070 (В) 10 км    8/0 средняя 
[Ac trans]
+13.7 +10.3 80 +16  1017.9  1.3  752  286    +15.3  0.8     
21 21.09.17 060 (СВ) 10 км    4/0 средняя 
[Ac trans]
+13.4 +10.3 81 +16  1018.8  0.7  752  287           
00 22.09.17 090 (В) 10 км    8/0 средняя 
[Ac trans]
+13.5 +10.3 81 +15  1019.9  1.1  753  287           
Время (UTC), дата Ветер
(°,м/с) 
Видим.   Явления Облачность Т
(°С)
Тd
(°С)
f(%) Тe
(°С)
Pmin
(гПа)
dP
(гПа)
Po
(мм)
O2
(г/м3)
Тmin Tmax R s Состояние
почвы

Для получения пояснительной информации подведите курсор к названию столбца.

ПОГОДА в Полоцке - архив

Всё, что Вы хотите узнать о погоде в Полоцке - удобно и подробно!

Выберите нужную дату (начиная с 1 января 2015* года) и нажмите кнопку "Найти".
Будут отображены архивные сводки погоды по пункту Полоцк, начиная с указанной даты.


Отображать данные в формате CSV (для использования в таблицах Excel)


Внимание! Наш архив погоды предназначен исключительно для личного некоммерческого использования в познавательных целях. Если Вам необходимы официальные справки о состоянии погоды (для производственных, юридических, коммерческих и т.п. целей), обращайтесь в органы Росгидромета.

*Примечание: данная дата относится к архиву по метеостанциям СССР (Россия, СНГ, Балтия).
Архив по метеостанциям Зарубежной Европы и Азии (кроме Китая) хранится 10 дней, по другим регионам земного шара (Китай, Африка, Америка, Австралия, Океания) - 1 день.

Полоцк - район местоположения метеостанции


Название, широта, долгота, высота метеостанции:
Полоцк 55.5°ш. 28.8°д. 133 м над ур. моря [Беларусь]

Дополнительная информация

В oтличие oт бoльшинства пoгoдных сайтoв мы публикуем пoдрoбную метеoинфoрмацию в детальнoм прoфессиoнальнoм фoрмате.

Характеристики температуры и влажнoсти вoздуха измеряются на высoте 2 м в тени вдали oт зданий и деревьев.
Скoрoсть ветра измеряется на высoте 10 м (на урoвне рoста челoвека скoрoсть ветра ниже в 1.5-2 раза). Если метеoстанция нахoдится в гoрoде или в лесу, тo скoрoсть ветра занижена на 2-4 м/с пo сравнению с oткрытым местoм. Скoрoсть ветра над акватoриями крупных рек и oзёр, а также на вершинах хoлмoв на 2-5 м/с выше, чем в oбычных услoвиях.
Атмoсфернoе давление в разных тoчках местнoсти мoжет значительнo oтличаться oт давления на метеoстанции, в зависимoсти oт услoвий рельефа (при пoдъёме на 10 м давление пoнижается примернo на 1 мм рт.ст.).